Location: Prairie View Elementary School
(39.8322°N, 99.5698°W)
Time: 06:37:04
(UTC+00:00)

SL-4 R/B - Pass Details

Date: 08 December 2019
Orbit: 428 x 667 km, 51.6° (Epoch: 27 January)

Event Time Altitude Azimuth Distance (km) Brightness Sun altitude
Rises 01:24:53 0° 290° (WNW) 2,562 6.4 -24.5°
Reaches altitude 10° 01:27:39 10° 312° (NW) 1,731 5.0 -25.1°
Enters shadow 01:29:24 16° 338° (NNW) 1,441 4.2 -25.4°
